This demonstration page uses our WeatherBlox Daily Observations layout. Learn more.

Left ArrowRight Arrow

44.8408, -93.29828

Hourly Observations for November 21, 2019

Temp ( °F °C ) Dew Point ( °F °C ) Humidity (%) Winds ( mph kmh ) Pressure ( in mb ) Visibility ( mi km ) Precip ( " mm )
12:07 am 00:07 Cloudy 43 6.1 38 3.3 82 82 E 6 9 29.74 1007 8 13 0.00 0.00
12:53 am 00:53 Cloudy with Light Rain 43 6.1 40 4.4 89 89 E 6 9 29.72 1007 3 5 0.03 0.76
1:30 am 01:30 Cloudy with Rain 42 5.6 40 4.4 92 92 ENE 5 7 29.72 1006 3 5 0.07 1.78
1:53 am 01:53 Cloudy with Light Rain 43 6.1 41 5 93 93 NE 6 9 29.69 1005 4 6 0.11 2.79
2:19 am 02:19 Cloudy with Light Rain 42 5.6 41 5 96 96 NNE 5 7 29.70 1006 4 6 0.04 1.02
2:53 am 02:53 Cloudy with Light Rain 43 6.1 41 5 93 93 N 5 7 29.68 1005 4 6 0.07 1.78
3:53 am 03:53 Cloudy with Light Rain 42 5.6 41 5 96 96 N 7 11 29.66 1005 3 5 0.04 1.02
4:16 am 04:16 Cloudy with Light Rain 42 5.6 41 5 96 96 N 5 7 29.67 1005 3 5 0.02 0.51
4:23 am 04:23 Cloudy with Light Rain 42 5.6 40 4.4 92 92 NNW 8 13 29.67 1005 4 6 0.02 0.51
4:53 am 04:53 Cloudy with Light Rain 41 5 39 3.9 93 93 NNW 12 19 29.67 1005 5 8 0.04 1.02
5:53 am 05:53 Cloudy with Light Rain 39 3.9 37 2.8 93 93 N 16 26 29.68 1005 7 11 0.07 1.78
6:18 am 06:18 Cloudy with Light Rain 38 3.3 35 1.7 89 89 N 23 37 29.72 1007 10 16 0.01 0.25
6:40 am 06:40 Windy with Snow Likely 36 2.2 33 0.6 89 89 N 24 39 29.75 1007 10 16 0.02 0.51
6:53 am 06:53 Cloudy with Light Wintry Mix 35 1.7 32 0 89 89 N 21 33 29.73 1007 6 10 0.02 0.51
7:17 am 07:17 Windy with Snow Likely 34 1.1 32 0 92 92 N 20 31 29.77 1008 4 6 0.02 0.51
7:53 am 07:53 Cloudy with Light Snow 35 1.7 32 0 89 89 N 16 26 29.78 1008 4 6 0.03 0.76
8:22 am 08:22 Cloudy with Light Snow 35 1.7 32 0 89 89 NNW 15 24 29.83 1010 5 8 0.01 0.25
8:53 am 08:53 Cloudy 35 1.7 32 0 89 89 NNW 16 26 29.83 1010 10 16 0.01 0.25
9:16 am 09:16 Cloudy with Light Wintry Mix 35 1.7 32 0 89 89 NNW 16 26 29.86 1011 9 14 0.01 0.25
9:53 am 09:53 Windy with Snow Likely 35 1.7 32 0 89 89 NNW 20 31 29.87 1012 6 10 0.01 0.25
10:40 am 10:40 Cloudy 35 1.7 32 0 89 89 NNW 21 33 29.93 1014 10 16 0.00 0.00
10:53 am 10:53 Cloudy 35 1.7 31 -0.6 85 85 NNW 17 28 29.91 1013 9 14 0.00 0.00
11:53 am 11:53 Cloudy 36 2.2 30 -1.1 79 79 NNW 20 31 29.92 1013 10 16 0.00 0.00
12:53 pm 12:53 Cloudy 36 2.2 29 -1.7 76 76 NNW 21 33 29.93 1014 10 16 0.00 0.00
1:53 pm 13:53 Cloudy 35 1.7 26 -3.3 70 70 NW 18 30 29.96 1015 10 16 0.00 0.00
2:53 pm 14:53 Mostly Cloudy 33 0.6 25 -3.9 72 72 NW 15 24 30.01 1016 10 16 0.00 0.00
3:53 pm 15:53 Mostly Cloudy 30 -1.1 21 -6.1 69 69 NW 15 24 30.05 1018 10 16 0.00 0.00
4:17 pm 16:17 Partly Cloudy 30 -1.1 20 -6.7 66 66 WNW 18 30 30.10 1019 10 16 0.00 0.00
4:53 pm 16:53 Partly Cloudy 28 -2.2 19 -7.2 69 69 NW 17 28 30.09 1019 10 16 0.00 0.00
5:45 pm 17:45 Mostly Cloudy 27 -2.8 19 -7.2 72 72 NNW 14 22 30.15 1021 10 16 0.00 0.00
5:53 pm 17:53 Mostly Cloudy 27 -2.8 18 -7.8 69 69 NW 17 28 30.13 1020 10 16 0.00 0.00
6:53 pm 18:53 Mostly Cloudy 27 -2.8 17 -8.3 66 66 NNW 18 30 30.15 1021 10 16 0.00 0.00
7:53 pm 19:53 Mostly Cloudy 25 -3.9 16 -8.9 69 69 NNW 12 19 30.19 1022 10 16 0.00 0.00
8:53 pm 20:53 Mostly Cloudy 23 -5 13 -10.6 65 65 N 14 22 30.22 1023 10 16 0.00 0.00
9:53 pm 21:53 Cloudy 22 -5.6 13 -10.6 68 68 NNW 14 22 30.24 1024 10 16 0.00 0.00
10:53 pm 22:53 Cloudy 23 -5 14 -10 68 68 N 13 20 30.24 1024 10 16 0.00 0.00
11:53 pm 23:53 Cloudy 23 -5 14 -10 68 68 NNW 10 17 30.26 1025 10 16 0.00 0.00

Powered by AerisWeather